Retour au catalogue

STARLINK-2222

ActifCommunicationsVLEO
NORAD 48572·PAYLOAD·🇺🇸 United States

Lancé May 15, 2021 depuis Cape Canaveral Space Force Station

Loading…

Prochains Passages (prochaines 24 heures)

TLE

FraisSource: CelesTrak SupGP

Époque: Sep 14, 2026, 14:11 UTC

1 48572C 21041V   26257.59145833  .00007408  00000+0  23826-3 0  2573
2 48572  53.1593 349.8131 0001301  75.4263  71.9980 15.31693280    18

Suivez STARLINK-2222 en temps réel avec AllMySat

Download on the App Store